Regional Weather Roundup
Issued by NWS

Home | Current Version | Previous Version | Text Only | Print | Product List | Glossary On
Versions: 1 2 3 4 5 6 7 8 9 10 11 12 13 14 15 16 17 18 19 20 21 22 23 24 25 26 27 28 29 30 31 32 33 34 35 36 37 38 39 40 41 42 43 44 45 46 47 48 49 50
000
ASUS43 KMKX 191459
RWRWI

WISCONSIN REGIONAL WEATHER ROUNDUP
NATIONAL WEATHER SERVICE MILWAUKEE/SULLIVAN WI
1000 AM CDT THU APR 19 2018

NOTE: "FAIR" INDICATES FEW OR NO CLOUDS BELOW 12,000 FEET WITH NO
SIGNIFICANT WEATHER AND/OR OBSTRUCTIONS TO VISIBILITY.

WIZ001-002-006>008-014>016-023>028-191600-
NORTHWEST WISCONSIN

CITY           SKY/WX    TMP DP  RH WIND       PRES   REMARKS
SUPERIOR ARPT  FAIR      42  19  41 CALM      30.42S
ASHLAND        FAIR      41  14  33 CALM      30.41R
HAYWARD        FAIR      40  17  39 NE6       30.40S
SIREN          FAIR      42  14  31 CALM      30.42S
CUMBERLAND     FAIR      36  16  44 N8        30.40S WCI  29
RICE LAKE      FAIR      36  15  41 N5        30.42S WCI  32
CHETEK         FAIR      37  17  45 NW5       30.41S WCI  33
LADYSMITH      FAIR      40  19  43 N9        30.40S WCI  34
EAU CLAIRE     FAIR      39  19  44 NW7       30.41R WCI  34
MENOMONIE      FAIR      39  17  40 CALM      30.42S
NEW RICHMOND   FAIR      36  17  46 NW3       30.43R
OSCEOLA        FAIR      34  19  53 CALM      30.47R
$$

WIZ003>005-009-010-017-018-191600-
NORTH CENTRAL WISCONSIN

CITY           SKY/WX    TMP DP  RH WIND       PRES   REMARKS
MANITOWISH WTR FAIR      37  18  45 N5        30.34R WCI  34
ARBOR VITAE    FAIR      39  22  50 N12       30.33R WCI  32
WOODRUFF       FAIR      39  22  50 N12       30.33R WCI  32
RHINELANDER    FAIR      41  19  41 N10       30.33R
EAGLE RIVER    FAIR      39  17  41 N10G16    30.31S WCI  32
LAND O LAKES   FAIR      38  19  45 N8        30.34R WCI  33
PHILLIPS       FAIR      38  19  48 N8        30.35R WCI  32
TOMAHAWK       FAIR      38  18  43 NE8       30.34R WCI  33
MEDFORD        FAIR      36  19  51 CALM      30.34R
MERRILL          N/A     40  19  44 N8        30.34R WCI  34
$$

WIZ029-030-035-036-043>047-191600-
CENTRAL WISCONSIN

CITY           SKY/WX    TMP DP  RH WIND       PRES   REMARKS
WAUSAU         FAIR      39  19  44 N8        30.32R WCI  33
MOSINEE        SUNNY     37  19  48 N9        30.34R WCI  31
MARSHFIELD     FAIR      36  20  52 NW7       30.34R WCI  30
STEVENS POINT  FAIR      37  18  45 N9        30.33R WCI  31
WAUPACA        FAIR      44  18  34 NW7       30.33R
WAUTOMA        FAIR      39  20  46 W5        30.35R
WISC RAPIDS    FAIR      39  18  42 N6        30.36R WCI  35
CAMP DOUGLAS   NOT AVBL
$$

WIZ011>013-019>022-031-037>040-048>050-191600-
NORTHEAST WISCONSIN

CITY           SKY/WX    TMP DP  RH WIND       PRES   REMARKS
ANTIGO         FAIR      36  21  55 N8        30.31R WCI  29
SHAWANO        FAIR      46  18  33 N7        30.30R
OCONTO         FAIR      38  20  47 N7        30.30R WCI  33
STURGEON BAY   FAIR      36  22  56 NW14      30.29R WCI  27
GREEN BAY      FAIR      39  23  52 NW10      30.31R WCI  32
MANITOWOC      NOT AVBL
APPLETON       SUNNY     36  16  44 N8        30.29R WCI  29
CLINTONVILLE   FAIR      40  17  40 N6        30.31R
OSHKOSH        FAIR      37  21  52 N8        30.32R WCI  31
$$

WIZ032>034-041-042-053>061-191600-
SOUTHWEST WISCONSIN

CITY           SKY/WX    TMP DP  RH WIND       PRES   REMARKS
LA CROSSE      FAIR      35  28  75 N7        30.43R WCI  29
SPARTA         FAIR      26  26 100 CALM      30.41R
VIROQUA        FAIR      33  25  72 NW5       30.37R WCI  28
BOSCOBEL       FAIR      36  29  75 CALM      30.41R
PRAIRIE DU CHI FAIR      34  26  72 NW5       30.41R WCI  30
PLATTEVILLE    FAIR      33  26  75 N8        30.37R WCI  26
$$

WIZ056-057-062-063-064-067-068-191600-
SOUTH CENTRAL WISCONSIN

CITY           SKY/WX    TMP DP  RH WIND       PRES   REMARKS
REEDSBURG      FAIR      33  27  76 W3        30.37R
BARABOO/DELLS  FAIR      35  25  67 NW5       30.35R WCI  31
LONE ROCK      NOT AVBL
MINERAL POINT  FAIR      36  28  75 N9        30.36R WCI  29
MADISON        FAIR      35  23  61 NW7       30.35R WCI  29
MIDDLETON      FAIR      36  25  63 NW6       30.36R WCI  32
WATERTOWN      FAIR      32  23  69 NW7       30.33R WCI  26
MONROE         FAIR      36  23  60 N10G16    30.34R WCI  28
JANESVILLE     SUNNY     37  25  60 NW7       30.34R WCI  32
$$

WIZ051-052-058>065-066-070>072-191600-
SOUTHEAST WISCONSIN

CITY           SKY/WX    TMP DP  RH WIND       PRES   REMARKS
MILWAUKEE      FAIR      39  24  55 N10       30.31R WCI  32
WAUKESHA       SUNNY     30  21  69 W10       30.32R WCI  21
MILWAUKEE/TIMM SUNNY     37  21  52 NW9       30.31R WCI  31
RACINE         FAIR      39  25  57 N13       30.32R WCI  31
BURLINGTON     FAIR      36  23  59 N9        30.31R WCI  29
KENOSHA        FAIR      37  24  59 NW10      30.31R WCI  30
FOND DU LAC    FAIR      36  19  50 NW7       30.32R WCI  30
SHEBOYGAN      FAIR      38  22  52 N13       30.29R WCI  30
WEST BEND      FAIR      34  27  75 NW7       30.30R WCI  28
JUNEAU         FAIR      31  20  64 NW6       30.33R WCI  25
$$

LSZ147-162-191600-
LAKE SUPERIOR

STATION/POSITION TIME  TEMP    WIND        PRES    WAVE
                       AIR SEA DIR/SP/G            HT/PER
                 (UTC) (F)     (DEG/KT/KT) (MB)    (FT/S)
DEVILS ISLAND    1400   36     250/  5/  7 1030.4R
SAXON HARBOR     1430   34      CALM  /  2 1029.1R
$$

LMZ867-665-643>646-191600-
LAKE MICHIGAN

STATION/POSITION TIME  TEMP    WIND        PRES    WAVE
                       AIR SEA DIR/SP/G            HT/PER
                 (UTC) (F)     (DEG/KT/KT) (MB)    (FT/S)
NORTHPORT PIER   1440   35                 1025.1R
KEWAUNEE LAKESHO 1424   37     340/  5/ 10 1024.6
PORT WASHINGTON  1430   38     340/  6/ 14 1026.8R
MILWAUKEE LAKESH 1430   37     320/  8/ 13   N/A
KENOSHA   LAKESH 1400   36                 1025.4
$$

TC  - TEMPERATURE IN CELSIUS
VSB - VISIBILITY IN STATUTE MILES
WCI - WIND CHILL INDEX
HX  - HEAT INDEX





USA.gov is the U.S. government's official web portal to all federal, state and local government web resources and services.